Weather in Zadniye Yandoushi

Russia / Chuvash Republic     55°40′41″N   47°34′01″E
temp.,
°C
wind,
m/s
gust,
m/s
humid.,
%
clouds,
%
prec.,
mm/h
press.,
hPa
HPBL,
m
12 may, wed
wed1200:00+14e24836 0.2 102647
03:00+13ne338816 0.2 102728
06:00+15e26815 0.0 1027160
09:00+20ese5757100 0.0 1027525
12:00+23ese4549100 0.0 10261337
15:00+24se574417 0.0 10262519
18:00+21ese3763100 0.0 1025145
21:00+17sse2269100 0.0 102627
13 may, thu
thu1300:00+15se227229 0.0 102611
03:00+14ese227443 0.0 102528
06:00+16ese397398 0.0 1025230
09:00+19ese58585 0.0 1025528
12:00+22se794688 0.0 10241180
15:00+20se71066100 0.1 1023650
18:00+18ese5127188 0.1 1022419
21:00+16ese51475100 0.2 1021330
14 may, fri
fri1400:00+14sse4128030 0.0 1021211
03:00+14sse387796 0.0 1021153
06:00+15sse257525 0.0 1022140
09:00+21sse345876 0.0 1021479
12:00+24s565497 0.0 10211057
15:00+25s4755100 0.0 10201690
18:00+23s48673 0.2 1019240
21:00+17s34726 0.2 101962
15 may, sat
sat1500:00+16sse3876100 0.0 1019130
03:00+15s367473 0.0 101999
06:00+17sse397150 0.0 1019223
09:00+22s585393 0.0 1018461
12:00+26s6104059 0.0 10181073
15:00+27s694399 0.0 10171111
18:00+23s5125396 0.0 1016320
21:00+17sse4136410 0.0 1016201
16 may, sun
sun1600:00+16s4106393 0.0 1016144
03:00+15sse4125938 0.0 1016181
06:00+17s4146377 0.0 1016341
09:00+23ssw6135344 0.0 1015744
12:00+26ssw6114477 0.0 10151452
15:00+26sw6105162 0.0 10151519
18:00+22sw496741 0.0 1015261
21:00+18wsw33863 0.0 101649